Location: Plainartige
(45.6866°N, 1.7993°E)
Time: 13:46:33
(UTC+00:00)

Cosmos 1844 - Pass Details

Date: 03 March 2021
Orbit: 822 x 868 km, 70.9° (Epoch: 15 April)

Event Time Altitude Azimuth Distance (km) Brightness Sun altitude
Rises 18:33:30 0° 337° (NNW) 3,460 7.2 -9.7°
Reaches altitude 10° 18:36:08 10° 344° (NNW) 2,516 6.4 -10.2°
Maximum altitude 18:41:37 43° 56° (NE) 1,200 4.2 -11.1°
Enters shadow 18:47:00 10° 127° (SE) 2,471 5.6 -12.1°
